Tracking 19193 objects as of 23-Jun-2018
HD Live streaming from Space Station
objects crossing your sky now

FENGYUN 1C DEB

Track FENGYUN 1C DEB now!
10-day predictions


NORAD ID: 36729
Int'l Code: 1999-025EBB
Perigee: 838.0 km
Apogee: 908.8 km
Inclination: 98.8 °
Period: 102.3 minutes
Semi major axis: 7244 km
RCS: 0.006 m2 (small)
Launch date: May 10, 1999
Source: People's Republic of China (PRC)
Launch site: Taiyaun Space Center, China (TSC)

Note: This is SATELLITE DEBRIS
aabbcc
Your satellite tracking list
Your tracking list is empty




NASA's NSSDC Master Catalog

Two Line Element Set (TLE):
1 36729U 99025EBB 18172.33573979  .00000153  00000-0  11376-3 0  9997
2 36729  98.7935 215.4661 0048889  64.2465 296.3738 14.07987148490335
Source of the keplerian elements: AFSPC